Tracking 32139 objects as of 15-Nov-2025
HD Live streaming from Space Station
objects crossing your sky now

SL-12 R/B(2)

Track SL-12 R/B(2) now!


NORAD ID: 20502
Int'l Code: 1990-016D
Perigee: 35,687.9 km
Apogee: 36,046.7 km
Inclination: 12.7 °
Period: 1,439.9 minutes
Semi major axis: 42238 km
RCS: 3.9952 m2 (large)
Launch date: February 15, 1990
Source: Commonwealth of Independent States (former USSR) (CIS)
Launch site: TYURATAM MISSILE AND SPACE COMPLEX (TTMTR)

Note: This is a ROCKET BODY
Your satellite tracking list
Your tracking list is empty




NASA's NSSDC Master Catalog

Two Line Element Set (TLE):
1 20502U 90016D   25318.83569241  .00000034  00000-0  00000+0 0  9998
2 20502  12.6833 336.6642 0042478 239.7144 202.6964  1.00009916130626
Source of the keplerian elements: AFSPC